Weather History for False Pass, AK

Change the Weather History Date:

Thursday, February 13, 2014

  Actual Average (PACD) Record (PACD)
Temperature  
Mean Temperature - 29 °F  
Max Temperature - 34 °F 41 °F (1986)
Min Temperature - 24 °F 3 °F (1972)
Degree Days  
Heating Degree Days 36  
Month to date heating degree days 473  
Since 1 July heating degree days 5689  
Cooling Degree Days    
Month to date cooling degree days  
Year to date cooling degree days  
Moisture  
Dew Point -    
Average Humidity    
Maximum Humidity    
Minimum Humidity    
Precipitation  
Precipitation 0.00 in 0.11 in 1.62 in (2006)
Month to date precipitation 1.37  
Year to date precipitation 4.53  
Snow  
Snow 0.00 in 0.50 in 2.10 in (1965)
Month to date snowfall 6.0  
Since 1 July snowfall 45.3  
Snow Depth -    
Sea Level Pressure  
Sea Level Pressure 29.53 in    
Wind  
Wind Speed 21 mph (WNW)    
Max Wind Speed 32 mph    
Max Gust Speed 55 mph    
Visibility 2 miles    
Events Rain    
T = Trace of Precipitation, MM = Missing Value Source: NWS Daily Summary

Daily Weather History Graph

Daily Weather History Graph

Search for Another Location

Airport:

Trip Planner

Search our weather history database for the weather conditions in past years. The results will help you decide how hot, cold, wet, or windy it might be!

Date:

Astronomy

Feb. 13, 2014 Rise Set
Actual Time 8:19 AM HAST 5:57 PM HAST
Civil Twilight 7:41 AM HAST 6:34 PM HAST
Nautical Twilight 6:59 AM HAST 7:17 PM HAST
Astronomical Twilight 6:17 AM HAST 7:59 PM HAST
Moon 5:18 PM HAST (2/13) 7:20 AM HAST (2/13)
Length of Visible Light 10h 53m
Length of Day
9h 37m
Waxing Gibbous, 99% of the Moon is Illuminated
Feb 13
Waxing Gibbous
Feb 14
Full
Feb 22
Last Quarter
Feb 28
New
Mar 8
First Quarter

Hourly Weather History & Observations

Time (HAST) Temp. Dew Point Humidity Pressure Visibility Wind Dir Wind Speed Gust Speed Precip Events Conditions
12:01 AM - - N/A% 29.58 in 10.0 mi WNW 13.8 mph 21.9 mph 0.00 in Rain Light Rain
1:01 AM - - N/A% 29.57 in 5.0 mi WNW 13.8 mph 19.6 mph 0.00 in   Unknown
1:11 AM - - N/A% 29.56 in 2.5 mi WNW 13.8 mph 21.9 mph 0.00 in   Unknown
1:18 AM - - N/A% 29.56 in 8.0 mi WNW 11.5 mph 19.6 mph 0.00 in   Unknown
1:33 AM - - N/A% 29.56 in 6.0 mi WNW 10.4 mph 26.5 mph 0.00 in   Unknown
1:54 AM - - N/A% 29.56 in 2.5 mi WNW 17.3 mph 24.2 mph 0.00 in   Unknown
2:01 AM - - N/A% 29.55 in 3.0 mi WNW 19.6 mph 29.9 mph 0.00 in   Unknown
2:09 AM - - N/A% 29.56 in 2.0 mi WNW 19.6 mph 38.0 mph 0.00 in   Unknown
2:19 AM - - N/A% 29.56 in 7.0 mi WNW 15.0 mph 29.9 mph 0.00 in   Unknown
3:01 AM - - N/A% 29.55 in 9.0 mi NW 15.0 mph 26.5 mph 0.00 in   Unknown
3:30 AM - - N/A% 29.54 in 1.8 mi WNW 17.3 mph 29.9 mph 0.00 in   Unknown
3:39 AM - - N/A% 29.54 in 3.0 mi WNW 16.1 mph 32.2 mph 0.00 in   Unknown
4:01 AM - - N/A% 29.54 in 5.0 mi WNW 15.0 mph 34.5 mph 0.00 in   Unknown
5:01 AM - - N/A% 29.54 in 3.0 mi WNW 19.6 mph 32.2 mph 0.00 in   Unknown
5:51 AM - - N/A% 29.53 in 2.5 mi WNW 25.3 mph 34.5 mph 0.00 in   Unknown
6:01 AM - - N/A% 29.54 in 1.5 mi WNW 24.2 mph 34.5 mph 0.00 in   Unknown
6:14 AM - - N/A% 29.54 in 4.0 mi WNW 19.6 mph 34.5 mph 0.00 in   Unknown
6:34 AM - - N/A% 29.55 in 1.0 mi WNW 23.0 mph 32.2 mph 0.00 in   Unknown
6:41 AM - - N/A% 29.55 in 0.8 mi WNW 23.0 mph 33.4 mph 0.00 in   Unknown
6:53 AM - - N/A% 29.55 in 0.8 mi West 21.9 mph 36.8 mph 0.00 in   Unknown
6:55 AM - - N/A% 29.54 in 1.0 mi West 21.9 mph 36.8 mph 0.00 in   Unknown
6:58 AM - - N/A% 29.55 in 2.0 mi WNW 15.0 mph 36.8 mph 0.00 in   Unknown
7:01 AM - - N/A% 29.55 in 2.5 mi WNW 24.2 mph 34.5 mph 0.00 in   Unknown
7:09 AM - - N/A% 29.55 in 2.5 mi WNW 23.0 mph 34.5 mph 0.00 in   Unknown
7:16 AM - - N/A% 29.55 in 1.5 mi WNW 17.3 mph 32.2 mph 0.00 in   Unknown
7:26 AM - - N/A% 29.55 in 5.0 mi West 21.9 mph 33.4 mph 0.00 in   Unknown
7:38 AM - - N/A% 29.55 in 9.0 mi WNW 15.0 mph 29.9 mph 0.00 in   Unknown
7:52 AM - - N/A% 29.55 in 1.2 mi WNW 19.6 mph 32.2 mph 0.00 in   Unknown
7:59 AM - - N/A% 29.55 in 3.0 mi West 20.7 mph 32.2 mph 0.00 in   Unknown
8:01 AM - - N/A% 29.55 in 3.0 mi West 18.4 mph 32.2 mph 0.00 in   Unknown
8:13 AM - - N/A% 29.55 in 3.0 mi West 23.0 mph 32.2 mph 0.00 in   Unknown
8:16 AM - - N/A% 29.55 in 1.5 mi West 24.2 mph 32.2 mph 0.00 in   Unknown
8:25 AM - - N/A% 29.55 in 1.0 mi West 23.0 mph 35.7 mph 0.00 in   Unknown
8:27 AM - - N/A% 29.55 in 0.5 mi West 20.7 mph 35.7 mph 0.00 in   Unknown
8:41 AM - - N/A% 29.55 in 0.8 mi WNW 21.9 mph 39.1 mph 0.00 in   Unknown
8:46 AM - - N/A% 29.54 in 1.5 mi West 25.3 mph 39.1 mph 0.00 in   Unknown
8:49 AM - - N/A% 29.54 in 4.0 mi WNW 21.9 mph 39.1 mph 0.00 in   Unknown
8:57 AM - - N/A% 29.54 in 3.0 mi West 25.3 mph 38.0 mph 0.00 in   Unknown
9:01 AM - - N/A% 29.54 in 1.0 mi West 28.8 mph 38.0 mph 0.00 in   Unknown
9:25 AM - - N/A% 29.53 in 2.0 mi West 21.9 mph 35.7 mph 0.00 in   Unknown
9:28 AM - - N/A% 29.53 in 1.8 mi WNW 26.5 mph 38.0 mph 0.00 in   Unknown
9:35 AM - - N/A% 29.54 in 0.8 mi WNW 26.5 mph 44.9 mph 0.00 in   Unknown
9:46 AM - - N/A% 29.54 in 1.2 mi West 26.5 mph 38.0 mph 0.00 in   Unknown
9:49 AM - - N/A% 29.54 in 2.0 mi WNW 23.0 mph 38.0 mph 0.00 in   Unknown
9:53 AM - - N/A% 29.54 in 3.0 mi WNW 25.3 mph 39.1 mph 0.00 in   Unknown
10:01 AM - - N/A% 29.54 in 5.0 mi WNW 24.2 mph 39.1 mph 0.00 in   Unknown
10:23 AM - - N/A% 29.54 in 1.0 mi WNW 23.0 mph 39.1 mph 0.00 in   Unknown
10:30 AM - - N/A% 29.54 in 0.8 mi WNW 27.6 mph 35.7 mph 0.00 in   Unknown
10:38 AM - - N/A% 29.53 in 0.2 mi WNW 24.2 mph 35.7 mph 0.00 in   Unknown
10:54 AM - - N/A% 29.53 in 0.8 mi WNW 25.3 mph 35.7 mph 0.00 in   Unknown
10:56 AM - - N/A% 29.53 in 1.2 mi WNW 26.5 mph 36.8 mph 0.00 in   Unknown
11:01 AM - - N/A% 29.52 in 1.5 mi WNW 31.1 mph 42.6 mph 0.00 in   Unknown
11:17 AM - - N/A% 29.53 in 4.0 mi WNW 27.6 mph 46.0 mph 0.00 in   Unknown
11:21 AM - - N/A% 29.53 in 1.2 mi WNW 24.2 mph 46.0 mph 0.00 in   Unknown
11:23 AM - - N/A% 29.53 in 0.8 mi WNW 24.2 mph 40.3 mph 0.00 in   Unknown
11:28 AM - - N/A% 29.53 in 0.2 mi West 25.3 mph 43.7 mph 0.00 in   Unknown
11:41 AM - - N/A% 29.52 in 0.2 mi WNW 29.9 mph 44.9 mph 0.00 in   Unknown
11:57 AM - - N/A% 29.53 in 0.2 mi West 23.0 mph 41.4 mph 0.00 in   Unknown
11:58 AM - - N/A% 29.53 in 0.2 mi WNW 20.7 mph 39.1 mph 0.00 in   Unknown
12:36 PM - - N/A% 29.52 in 0.5 mi West 25.3 mph 41.4 mph 0.00 in   Unknown
12:43 PM - - N/A% 29.52 in 0.2 mi WNW 19.6 mph 41.4 mph 0.00 in   Unknown
1:01 PM - - N/A% 29.52 in 0.2 mi WNW 26.5 mph 42.6 mph 0.00 in   Unknown
1:08 PM - - N/A% 29.52 in 0.2 mi WNW 26.5 mph 41.4 mph 0.00 in   Unknown
1:21 PM - - N/A% 29.51 in 0.2 mi WNW 24.2 mph 46.0 mph 0.00 in   Unknown
1:25 PM - - N/A% 29.51 in 0.5 mi WNW 27.6 mph 39.1 mph 0.00 in   Unknown
1:32 PM - - N/A% 29.52 in 0.2 mi WNW 18.4 mph 36.8 mph 0.00 in   Unknown
1:44 PM - - N/A% 29.51 in 0.2 mi WNW 27.6 mph 43.7 mph 0.00 in   Unknown
1:51 PM - - N/A% 29.52 in 0.2 mi WNW 29.9 mph 42.6 mph 0.00 in   Unknown
1:57 PM - - N/A% 29.51 in 0.5 mi WNW 29.9 mph 43.7 mph 0.00 in   Unknown
2:01 PM - - N/A% 29.51 in 0.8 mi WNW 28.8 mph 43.7 mph 0.00 in   Unknown
2:11 PM - - N/A% 29.51 in 0.8 mi WNW 25.3 mph 43.7 mph 0.00 in   Unknown
2:18 PM - - N/A% 29.51 in 0.5 mi WNW 26.5 mph 43.7 mph 0.00 in   Unknown
2:27 PM - - N/A% 29.51 in 0.5 mi WNW 31.1 mph 50.6 mph 0.00 in   Unknown
2:34 PM - - N/A% 29.53 in 1.0 mi WNW 28.8 mph 50.6 mph 0.00 in   Unknown
2:51 PM - - N/A% 29.52 in 0.8 mi WNW 32.2 mph 52.9 mph 0.00 in   Unknown
2:58 PM - - N/A% 29.53 in 0.5 mi West 24.2 mph 46.0 mph 0.00 in   Unknown
2:59 PM - - N/A% 29.53 in 0.8 mi WNW 24.2 mph 46.0 mph 0.00 in   Unknown
3:01 PM - - N/A% 29.53 in 0.8 mi WNW 28.8 mph 47.2 mph 0.00 in   Unknown
3:11 PM - - N/A% 29.53 in 1.0 mi WNW 29.9 mph 44.9 mph 0.00 in   Unknown
3:14 PM - - N/A% 29.53 in 2.0 mi WNW 25.3 mph 44.9 mph 0.00 in   Unknown
3:22 PM - - N/A% 29.53 in 1.2 mi WNW 27.6 mph 47.2 mph 0.00 in   Unknown
3:27 PM - - N/A% 29.53 in 0.8 mi WNW 32.2 mph 55.2 mph 0.00 in   Unknown
3:30 PM - - N/A% 29.53 in 1.0 mi WNW 26.5 mph 55.2 mph 0.00 in   Unknown
3:38 PM - - N/A% 29.52 in 1.8 mi WNW 24.2 mph 42.6 mph 0.00 in   Unknown
3:56 PM - - N/A% 29.53 in 3.0 mi WNW 17.3 mph 36.8 mph 0.00 in   Unknown
3:57 PM - - N/A% 29.53 in 3.0 mi WNW 15.0 mph 34.5 mph 0.00 in   Unknown
4:04 PM - - N/A% 29.53 in 1.2 mi WNW 24.2 mph 34.5 mph 0.00 in   Unknown
4:06 PM - - N/A% 29.53 in 0.5 mi West 20.7 mph 34.5 mph 0.00 in   Unknown
4:11 PM - - N/A% 29.53 in 0.2 mi WNW 28.8 mph 38.0 mph 0.00 in   Unknown
4:32 PM - - N/A% 29.52 in 0.2 mi WNW 23.0 mph 40.3 mph 0.00 in   Unknown
4:40 PM - - N/A% 29.52 in 0.8 mi WNW 23.0 mph 35.7 mph 0.00 in   Unknown
4:42 PM - - N/A% 29.52 in 1.0 mi WNW 19.6 mph 35.7 mph 0.00 in   Unknown
4:49 PM - - N/A% 29.53 in 1.5 mi WNW 17.3 mph 40.3 mph 0.00 in   Unknown
5:01 PM - - N/A% 29.52 in 2.0 mi West 21.9 mph 40.3 mph 0.00 in   Unknown
5:11 PM - - N/A% 29.52 in 1.5 mi WNW 23.0 mph 35.7 mph 0.00 in   Unknown
5:19 PM - - N/A% 29.52 in 0.5 mi NW 23.0 mph 35.7 mph 0.00 in   Unknown
5:28 PM - - N/A% 29.52 in 1.5 mi WNW 23.0 mph 38.0 mph 0.00 in   Unknown
5:36 PM - - N/A% 29.52 in 1.0 mi WNW 18.4 mph 38.0 mph 0.00 in   Unknown
5:43 PM - - N/A% 29.52 in 5.0 mi WNW 25.3 mph 34.5 mph 0.00 in   Unknown
5:59 PM - - N/A% 29.52 in 9.0 mi WNW 23.0 mph 32.2 mph 0.00 in   Unknown
6:01 PM - - N/A% 29.52 in 9.0 mi WNW 19.6 mph 31.1 mph 0.00 in   Unknown
6:07 PM - - N/A% 29.52 in 8.0 mi WNW 18.4 mph 31.1 mph 0.00 in   Unknown
6:29 PM - - N/A% 29.53 in 1.0 mi WNW 27.6 mph 40.3 mph 0.00 in   Unknown
6:32 PM - - N/A% 29.53 in 0.8 mi WNW 25.3 mph 40.3 mph 0.00 in   Unknown
6:40 PM - - N/A% 29.52 in 1.5 mi WNW 26.5 mph 39.1 mph 0.00 in   Unknown
6:47 PM - - N/A% 29.53 in 1.5 mi WNW 25.3 mph 41.4 mph 0.00 in   Unknown
6:56 PM - - N/A% 29.52 in 1.0 mi WNW 27.6 mph 39.1 mph 0.00 in   Unknown
7:01 PM - - N/A% 29.52 in 1.0 mi WNW 28.8 mph 40.3 mph 0.00 in   Unknown
7:08 PM - - N/A% 29.53 in 1.2 mi West 20.7 mph 40.3 mph 0.00 in   Unknown
7:12 PM - - N/A% 29.53 in 0.8 mi WNW 21.9 mph 36.8 mph 0.00 in   Unknown
7:20 PM - - N/A% 29.53 in 1.0 mi WNW 21.9 mph 32.2 mph 0.00 in   Unknown
7:22 PM - - N/A% 29.53 in 1.2 mi WNW 26.5 mph 32.2 mph 0.00 in   Unknown
7:25 PM - - N/A% 29.53 in 1.0 mi West 25.3 mph 36.8 mph 0.00 in   Unknown
7:29 PM - - N/A% 29.52 in 0.8 mi West 24.2 mph 36.8 mph 0.00 in   Unknown
7:39 PM - - N/A% 29.52 in 1.2 mi WNW 23.0 mph 29.9 mph 0.00 in   Unknown
7:46 PM - - N/A% 29.52 in 3.0 mi West 23.0 mph 34.5 mph 0.00 in   Unknown
7:54 PM - - N/A% 29.52 in 1.5 mi WNW 28.8 mph 34.5 mph 0.00 in   Unknown
8:01 PM - - N/A% 29.52 in 1.0 mi WNW 19.6 mph 38.0 mph 0.00 in   Unknown
8:09 PM - - N/A% 29.52 in 1.5 mi WNW 21.9 mph 35.7 mph 0.00 in   Unknown
8:25 PM - - N/A% 29.52 in 5.0 mi WNW 23.0 mph 36.8 mph 0.00 in   Unknown
8:43 PM - - N/A% 29.52 in 8.0 mi WNW 20.7 mph 34.5 mph 0.00 in   Unknown
8:51 PM - - N/A% 29.52 in 1.8 mi WNW 24.2 mph 38.0 mph 0.00 in   Unknown
9:01 PM - - N/A% 29.52 in 1.8 mi WNW 24.2 mph 34.5 mph 0.00 in   Unknown
9:05 PM - - N/A% 29.52 in 3.0 mi WNW 21.9 mph 34.5 mph 0.00 in   Unknown
9:16 PM - - N/A% 29.51 in 2.0 mi WNW 18.4 mph 39.1 mph 0.00 in   Unknown
9:21 PM - - N/A% 29.52 in 1.0 mi West 19.6 mph 39.1 mph 0.00 in   Unknown
9:31 PM - - N/A% 29.52 in 1.2 mi WNW 26.5 mph 34.5 mph 0.00 in   Unknown
9:40 PM - - N/A% 29.51 in 1.0 mi WNW 24.2 mph 35.7 mph 0.00 in   Unknown
9:44 PM - - N/A% 29.52 in 0.8 mi WNW 24.2 mph 35.7 mph 0.00 in   Unknown
9:54 PM - - N/A% 29.52 in 1.0 mi WNW 26.5 mph 34.5 mph 0.00 in   Unknown
10:01 PM - - N/A% 29.52 in 0.8 mi WNW 16.1 mph 34.5 mph 0.00 in   Unknown
10:08 PM - - N/A% 29.52 in 0.8 mi WNW 26.5 mph 43.7 mph 0.00 in   Unknown
10:11 PM - - N/A% 29.52 in 0.5 mi WNW 24.2 mph 43.7 mph 0.00 in   Unknown
10:18 PM - - N/A% 29.52 in 1.0 mi West 25.3 mph 35.7 mph 0.00 in   Unknown
10:24 PM - - N/A% 29.51 in 0.5 mi West 25.3 mph 42.6 mph 0.00 in   Unknown
10:35 PM - - N/A% 29.51 in 0.8 mi WNW 26.5 mph 35.7 mph 0.00 in   Unknown
10:39 PM - - N/A% 29.51 in 1.0 mi West 24.2 mph 42.6 mph 0.00 in   Unknown
10:48 PM - - N/A% 29.51 in 2.0 mi WNW 24.2 mph 42.6 mph 0.00 in   Unknown
11:01 PM - - N/A% 29.52 in 1.0 mi West 24.2 mph 38.0 mph 0.00 in   Unknown
11:09 PM - - N/A% 29.52 in 3.0 mi WNW 21.9 mph 38.0 mph 0.00 in   Unknown
11:20 PM - - N/A% 29.52 in 2.5 mi West 19.6 mph 36.8 mph 0.00 in   Unknown
11:29 PM - - N/A% 29.52 in 0.5 mi WNW 20.7 mph 41.4 mph 0.00 in   Unknown
11:37 PM - - N/A% 29.52 in 1.0 mi WNW 27.6 mph 39.1 mph 0.00 in   Unknown
11:44 PM - - N/A% 29.51 in 2.0 mi WNW 27.6 mph 39.1 mph 0.00 in   Unknown
11:54 PM - - N/A% 29.52 in 6.0 mi WNW 20.7 mph 40.3 mph 0.00 in   Unknown